Overview Statistics Trail Chart Weather Telemetry Raw packets
 

This is the latest recevied weather packets stored in our database for station/object WP3OF-2. If no packets are shown the sender has not sent any weather packets the latest 10 day(s).

<< 53 54 55 56 57 58 59 >>
Time Temp. Humidity Pressure Rain* Wind** Luminosity Snow
1788200602 22.22° C 95% 1026 hPa 0 mm - 217 W/m² -
1788200297 22.22° C 95% 1026 hPa 0 mm - 219 W/m² -
1788199992 22.78° C 95% 1025.6 hPa 0 mm - 216 W/m² -
1788199687 22.78° C 95% 1026 hPa 0 mm - 239 W/m² -
1788199387 22.78° C 94% 1026 hPa 0 mm - 243 W/m² -
1788199086 22.78° C 94% 1026 hPa 0 mm - 249 W/m² -
1788198783 22.78° C 94% 1026.3 hPa 0 mm - 256 W/m² -
1788198478 23.33° C 93% 1026.3 hPa 0 mm - 244 W/m² -
1788198174 23.89° C 93% 1026.3 hPa 0 mm - 285 W/m² -
1788197872 23.89° C 93% 1026.3 hPa 0 mm - 345 W/m² -
1788197562 23.89° C 93% 1026.3 hPa 0 mm - 751 W/m² -
1788197257 23.33° C 93% 1026.3 hPa 0 mm - 732 W/m² -
1788196952 23.89° C 92% 1026.3 hPa 0 mm - 860 W/m² -
1788196652 23.89° C 92% 1026.3 hPa 0 mm - 860 W/m² -
1788196350 23.89° C 92% 1026.3 hPa 0 mm - 589 W/m² -
1788196046 24.44° C 93% 1026.3 hPa 0 mm - 515 W/m² -
1788195742 23.89° C 94% 1026.3 hPa 0 mm - 1014 W/m² -
1788195438 23.89° C 93% 1026.7 hPa 0 mm - 936 W/m² -
1788195134 23.89° C 93% 1026.7 hPa 0 mm - 936 W/m² -
1788194830 23.33° C 94% 1026.7 hPa 0 mm - 931 W/m² -
1788194526 23.33° C 94% 1026.7 hPa 0 mm - 931 W/m² -
1788194220 23.33° C 95% 1027.1 hPa 0 mm - 812 W/m² -
1788193674 23.33° C 95% 1026.7 hPa 0 mm - 919 W/m² -
1788193369 23.33° C 95% 1026.7 hPa 0 mm - 919 W/m² -
1788193062 23.33° C 95% 1026.7 hPa 0 mm - 535 W/m² -

* Rain latest hour (hover to see other rain measurements)
** Current wind speed in m/s (hover to see current wind gust speed)